User: anonymous   Login
Location: Caltech
(34.1382°N, 118.1253°W)
Time: 16:28:04
(UTC-07:00)
Language:

Cosmos 44 Rocket - Orbit

View from above orbital plane
View from above orbital plane
View from above satellite
View from above satellite

Ground track
Ground track

The orbit data is extracted from the following two-line orbital elements,

1 00877U 64053B   17293.18548936 -.00000060  00000-0  12387-4 0  9998
2 00877  65.0773 287.1466 0052021  52.6470 307.9351 14.59308682819754
Epoch (UTC): 20 October 2017 04:27:06
Eccentricity: 0.0052021
inclination: 65.0773°
perigee height: 658 km
apogee height: 732 km
right ascension of ascending node: 287.1466°
argument of perigee: 52.6470°
revolutions per day: 14.59308682
mean anomaly at epoch: 307.9351°
orbit number at epoch: 81975

The dashed part of the orbit path shows where the satellite is in the earth's shadow,  

DLR